Weather History for Shreveport Downtown, LA

Change the Weather History Date:

Tuesday, May 14, 2013

  Actual Average (KSHV) Record (KSHV)
Temperature  
Mean Temperature 74 °F 73 °F  
Max Temperature 87 °F 83 °F 98 °F (1875)
Min Temperature 61 °F 62 °F 46 °F (1971)
Degree Days  
Heating Degree Days 0 0  
Month to date heating degree days 5  
Since 1 July heating degree days 2224  
Cooling Degree Days 8 8  
Month to date cooling degree days 92  
Year to date cooling degree days 227  
Growing Degree Days 24 (Base 50)    
Moisture  
Dew Point 50 °F    
Average Humidity 44    
Maximum Humidity 67    
Minimum Humidity 22    
Precipitation  
Precipitation 0.00 in 0.16 in 4.06 in (2008)
Month to date precipitation 2.27  
Year to date precipitation 19.55  
Snow  
Snow 0.00 in - - ()
Month to date snowfall  
Since 1 July snowfall  
Snow Depth -    
Sea Level Pressure  
Sea Level Pressure 30.14 in    
Wind  
Wind Speed 11 mph (SSW)    
Max Wind Speed 17 mph    
Max Gust Speed 24 mph    
Visibility 10 miles    
Events      
T = Trace of Precipitation, MM = Missing Value Source: NWS Daily Summary

Daily Weather History Graph

Daily Weather History Graph

Search for Another Location

Airport:

Trip Planner

Search our weather history database for the weather conditions in past years. The results will help you decide how hot, cold, wet, or windy it might be!

Date:

Astronomy

May. 14, 2013 Rise Set
Actual Time 6:17 AM CDT 8:05 PM CDT
Civil Twilight 5:50 AM CDT 8:33 PM CDT
Nautical Twilight 5:17 AM CDT 9:05 PM CDT
Astronomical Twilight 4:42 AM CDT 9:40 PM CDT
Moon 9:56 AM CDT (5/14) 11:55 PM CDT (5/14)
Length of Visible Light 14h 43m
Length of Day
13h 48m
Waxing Crescent, 19% of the Moon is Illuminated
May 14
Waxing Crescent
May 17
First Quarter
May 24
Full
May 31
Last Quarter
Jun 8
New

Hourly Weather History & Observations

Time (CDT) Temp. Heat Index Dew Point Humidity Pressure Visibility Wind Dir Wind Speed Gust Speed Precip Events Conditions
12:53 AM 69.1 °F - 48.0 °F 47% 30.17 in 10.0 mi SSW 10.4 mph - N/A   Clear
1:53 AM 66.9 °F - 48.9 °F 52% 30.15 in 10.0 mi SW 11.5 mph 18.4 mph N/A   Clear
2:53 AM 64.9 °F - 50.0 °F 58% 30.14 in 10.0 mi SW 11.5 mph - N/A   Clear
3:53 AM 64.0 °F - 51.1 °F 63% 30.14 in 10.0 mi SW 10.4 mph - N/A   Clear
4:53 AM 63.0 °F - 51.1 °F 65% 30.14 in 10.0 mi SW 6.9 mph - N/A   Clear
5:53 AM 62.1 °F - 50.0 °F 65% 30.16 in 10.0 mi SW 6.9 mph - N/A   Clear
6:53 AM 61.0 °F - 50.0 °F 67% 30.18 in 10.0 mi SW 8.1 mph - N/A   Clear
7:53 AM 64.0 °F - 53.1 °F 67% 30.19 in 10.0 mi SW 5.8 mph - N/A   Clear
8:53 AM 68.0 °F - 53.1 °F 59% 30.20 in 10.0 mi SW 8.1 mph - N/A   Clear
9:53 AM 73.0 °F - 48.9 °F 42% 30.21 in 10.0 mi SW 11.5 mph - N/A   Clear
10:53 AM 75.9 °F - 53.1 °F 45% 30.22 in 10.0 mi South 8.1 mph - N/A   Clear
11:53 AM 80.1 °F 80.0 °F 54.0 °F 40% 30.21 in 10.0 mi SSW 6.9 mph - N/A   Clear
12:53 PM 84.0 °F - 50.0 °F 31% 30.18 in 10.0 mi SSW 11.5 mph - N/A   Clear
1:53 PM 86.0 °F - 46.0 °F 25% 30.15 in 10.0 mi SW 15.0 mph - N/A   Clear
2:53 PM 86.0 °F - 43.0 °F 22% 30.13 in 10.0 mi SSW 15.0 mph 20.7 mph N/A   Clear
3:53 PM 86.0 °F - 50.0 °F 29% 30.10 in 10.0 mi South 10.4 mph - N/A   Clear
4:53 PM 86.0 °F - 48.9 °F 28% 30.09 in 10.0 mi South 16.1 mph 21.9 mph N/A   Clear
5:53 PM 84.9 °F - 46.0 °F 26% 30.09 in 10.0 mi SSW 17.3 mph 24.2 mph N/A   Clear
6:53 PM 82.9 °F - 48.0 °F 29% 30.06 in 10.0 mi South 16.1 mph 24.2 mph N/A   Clear
7:53 PM 79.0 °F - 50.0 °F 36% 30.06 in 10.0 mi South 9.2 mph - N/A   Clear
8:53 PM 77.0 °F - 52.0 °F 42% 30.08 in 10.0 mi South 9.2 mph - N/A   Clear
9:53 PM 75.0 °F - 50.0 °F 41% 30.08 in 10.0 mi South 12.7 mph - N/A   Clear
10:53 PM 73.0 °F - 46.9 °F 39% 30.10 in 10.0 mi South 15.0 mph - N/A   Clear
11:53 PM 71.1 °F - 48.0 °F 44% 30.12 in 10.0 mi South 12.7 mph 21.9 mph N/A   Clear